Evansville, IN

1:46 PM CDT on September 26, 2017 (GMT -0500)
Evansville Regional

Weather History for KEVV - August, 2013

Change the Weather History Date:

Sunday, August 25, 2013

  Actual Average Record
Temperature  
Mean Temperature 76 °F 76 °F  
Max Temperature 89 °F 88 °F 102 °F (1943)
Min Temperature 63 °F 64 °F 49 °F (1942)
Degree Days  
Heating Degree Days 0 0  
Month to date heating degree days 0 0  
Since 1 June heating degree days 1 6  
Since 1 July heating degree days 0 0  
Cooling Degree Days 11 11  
Month to date cooling degree days 268 299  
Year to date cooling degree days 1086 1135  
Since 1 June cooling degree days 915 1000  
Growing Degree Days 26 (Base 50)    
Moisture  
Dew Point 67 °F    
Average Humidity 75    
Maximum Humidity 93    
Minimum Humidity 57    
Precipitation  
Precipitation 0.00 in 0.09 in 1.51 in (1918)
Month to date precipitation 1.36 2.42  
Year to date precipitation 35.05 30.36  
Snow  
Snow 0.00 in 0.00 in 0.00 in (2002)
Month to date snowfall 0.0 0.0  
Since 1 June snowfall 0.0 0.0  
Since 1 July snowfall 0.0 0.0  
Snow Depth 0.00 in    
Sea Level Pressure  
Sea Level Pressure 30.24 in    
Wind  
Wind Speed 3 mph (SE)    
Max Wind Speed 8 mph    
Max Gust Speed 12 mph    
Visibility 10 miles    
Events      
T = Trace of Precipitation, MM = Missing Value Source: NWS Daily Summary

Daily Weather History Graph

Daily Weather History Graph

Search for Another Location

Airport or City:

Trip Planner

Search our weather history database for the weather conditions in past years. The results will help you decide how hot, cold, wet, or windy it might be!

Date:

Astronomy

Aug. 25, 2013 Rise Set
Actual Time 6:14 AM CDT 7:29 PM CDT
Civil Twilight 5:46 AM CDT 7:56 PM CDT
Nautical Twilight 5:14 AM CDT 8:29 PM CDT
Astronomical Twilight 4:39 AM CDT 9:03 PM CDT
Moon 10:06 PM CDT (8/25) 11:09 AM CDT (8/25)
Length of Visible Light 14h 10m
Length of Day
13h 15m
Waning Gibbous, 75% of the Moon is Illuminated
Aug 25
Waning Gibbous
Aug 28
Last Quarter
Sep 5
New
Sep 12
First Quarter
Sep 19
Full

Hourly Weather History & Observations

Time (CDT) Temp. Heat Index Dew Point Humidity Pressure Visibility Wind Dir Wind Speed Gust Speed Precip Events Conditions
12:54 AM 66.9 °F - 62.1 °F 84% 30.22 in 10.0 mi Calm Calm - N/A   Clear
1:54 AM 64.9 °F - 61.0 °F 87% 30.22 in 10.0 mi Calm Calm - N/A   Clear
2:54 AM 66.0 °F - 62.1 °F 87% 30.23 in 10.0 mi ENE 3.5 mph - N/A   Clear
3:54 AM 64.9 °F - 61.0 °F 87% 30.24 in 10.0 mi Calm Calm - N/A   Clear
4:54 AM 63.0 °F - 60.1 °F 90% 30.26 in 10.0 mi Calm Calm - N/A   Clear
5:54 AM 64.0 °F - 61.0 °F 90% 30.27 in 10.0 mi Calm Calm - N/A   Clear
6:54 AM 64.0 °F - 61.0 °F 90% 30.28 in 9.0 mi NE 4.6 mph - N/A   Clear
7:54 AM 69.1 °F - 62.1 °F 78% 30.29 in 10.0 mi Calm Calm - N/A   Clear
8:54 AM 73.9 °F - 63.0 °F 68% 30.30 in 10.0 mi Calm Calm - N/A   Clear
9:54 AM 79.0 °F - 66.9 °F 66% 30.30 in 10.0 mi South 4.6 mph - N/A   Clear
10:54 AM 82.0 °F 85.9 °F 70.0 °F 67% 30.29 in 10.0 mi SSW 5.8 mph - N/A   Partly Cloudy
11:54 AM 84.0 °F 89.0 °F 71.1 °F 65% 30.27 in 10.0 mi SSW 4.6 mph - N/A   Clear
12:54 PM 86.0 °F 91.5 °F 71.1 °F 61% 30.25 in 10.0 mi WSW 4.6 mph - N/A   Partly Cloudy
1:54 PM 88.0 °F 94.7 °F 72.0 °F 59% 30.24 in 10.0 mi East 4.6 mph - N/A   Scattered Clouds
2:54 PM 88.0 °F 93.8 °F 71.1 °F 57% 30.22 in 10.0 mi East 5.8 mph - N/A   Scattered Clouds
3:54 PM 86.0 °F 90.7 °F 70.0 °F 59% 30.21 in 10.0 mi East 4.6 mph - N/A   Mostly Cloudy
4:54 PM 86.0 °F 90.7 °F 70.0 °F 59% 30.20 in 10.0 mi NE 3.5 mph - N/A   Overcast
5:54 PM 84.9 °F 89.4 °F 70.0 °F 61% 30.20 in 10.0 mi SSE 3.5 mph - N/A   Overcast
6:54 PM 84.9 °F 88.8 °F 69.1 °F 59% 30.20 in 10.0 mi SSE 4.6 mph - N/A   Mostly Cloudy
7:54 PM 82.0 °F 85.9 °F 70.0 °F 67% 30.21 in 10.0 mi SSE 4.6 mph - N/A   Clear
8:54 PM 80.1 °F 83.2 °F 70.0 °F 71% 30.23 in 10.0 mi South 3.5 mph - N/A   Clear
9:54 PM 79.0 °F - 70.0 °F 74% 30.24 in 10.0 mi South 3.5 mph - N/A   Clear
10:54 PM 77.0 °F - 70.0 °F 79% 30.24 in 10.0 mi Calm Calm - N/A   Clear
11:54 PM 77.0 °F - 70.0 °F 79% 30.24 in 10.0 mi Calm Calm - N/A   Clear